Bonaire, Netherlands

8:10 PM AST on July 24, 2017 (GMT -0400)
Flamingo

Weather History for TNCB - October, 2012

Change the Weather History Date:

Sunday, October 7, 2012

  Actual Average Record
Temperature  
Mean Temperature 81 °F -  
Max Temperature 89 °F 88 °F 93 °F (2004)
Min Temperature 73 °F 81 °F 73 °F (2012)
Cooling Degree Days 16    
Growing Degree Days 31 (Base 50)    
Moisture  
Dew Point 77 °F    
Average Humidity 83    
Maximum Humidity 100    
Minimum Humidity 66    
Precipitation  
Precipitation 0.00 in - - ()
Sea Level Pressure  
Sea Level Pressure 29.87 in    
Wind  
Wind Speed 16 mph ()    
Max Wind Speed 100 mph    
Max Gust Speed -    
Visibility 9.0 miles    
Events Rain    
Averages and records for this station are not official NWS values.
T = Trace of Precipitation, MM = Missing Value Source: Averaged Metar Reports

Daily Weather History Graph

Daily Weather History Graph

Search for Another Location

Airport or City:

Trip Planner

Search our weather history database for the weather conditions in past years. The results will help you decide how hot, cold, wet, or windy it might be!

Date:

Astronomy

Oct. 07, 2012 Rise Set
Actual Time 6:22 AM AST 6:19 PM AST
Civil Twilight 6:01 AM AST 6:40 PM AST
Nautical Twilight 5:36 AM AST 7:04 PM AST
Astronomical Twilight 5:11 AM AST 7:29 PM AST
Moon No Moon Rise 12:16 PM AST (10/7)
Length of Visible Light 12h 39m
Length of Day
11h 56m
Waning Gibbous, 56% of the Moon is Illuminated
Oct 7
Waning Gibbous
Oct 8
Last Quarter
Oct 15
New
Oct 21
First Quarter
Oct 29
Full

Hourly Weather History & Observations

Time (AST) Temp. Heat Index Dew Point Humidity Pressure Visibility Wind Dir Wind Speed Gust Speed Precip Events Conditions
12:00 AM 82.4 °F 90.9 °F 77.0 °F 84% 29.86 in - North - - N/A   Unknown
1:00 AM 82.4 °F 90.9 °F 77.0 °F 84% 29.86 in - North - - N/A   Unknown
2:00 AM 73.4 °F - 71.6 °F 94% 29.86 in - North - - N/A Rain Heavy Rain
6:00 AM 77.0 °F - 77.0 °F 100% 29.83 in - North - - N/A   Unknown
7:00 AM 78.8 °F - 77.0 °F 94% 29.86 in - ESE 11.5 mph - N/A   Unknown
8:00 AM 80.6 °F 88.1 °F 78.8 °F 94% 29.86 in - ESE 11.5 mph - N/A   Unknown
9:00 AM 82.4 °F 92.4 °F 78.8 °F 89% 29.89 in - ESE 11.5 mph - N/A   Unknown
10:00 AM 86.0 °F 99.3 °F 78.8 °F 79% 29.92 in 6.2 mi East 100.1 mph - N/A   Scattered Clouds
12:00 PM 87.8 °F 102.5 °F 78.8 °F 75% 29.89 in 6.2 mi ESE 12.7 mph - N/A   Partly Cloudy
2:00 PM 88 °F - 78 °F 66% 29.86 in 19 mi East 12.7 mph - -   Partly Cloudy
2:00 PM 87.8 °F 99.7 °F 77.0 °F 70% 29.83 in 6.2 mi East 12.7 mph - N/A   Scattered Clouds
3:00 PM 87.8 °F 102.5 °F 78.8 °F 75% 29.83 in 6.2 mi East 11.5 mph - N/A   Scattered Clouds
4:00 PM 86.0 °F 96.9 °F 77.0 °F 74% 29.83 in 6.2 mi East 12.7 mph - N/A   Scattered Clouds
6:00 PM 84.2 °F 94.1 °F 77.0 °F 79% 29.83 in - North - - N/A   Unknown
7:00 PM 82.4 °F 90.9 °F 77.0 °F 84% 29.86 in 6.2 mi East 9.2 mph - N/A   Scattered Clouds
8:00 PM 83 °F - 78 °F 79%  in 19 mi ESE 11.5 mph - -   Clear
8:00 PM 82.4 °F 90.9 °F 77.0 °F 84% 29.86 in - North - - N/A   Unknown
9:00 PM 82.4 °F 90.9 °F 77.0 °F 84% 29.89 in - North - - N/A   Unknown
10:00 PM 82.4 °F 90.9 °F 77.0 °F 84% 29.92 in - ESE 11.5 mph - N/A   Unknown
11:00 PM 82 °F - 78 °F 84%  in 6 mi ESE 11.5 mph - -   Clear
11:00 PM 82.4 °F 92.4 °F 78.8 °F 89% 29.92 in - ESE 11.5 mph - N/A   Unknown